New Richmond, WI

3:17 AM CDT on April 25, 2017 (GMT -0500)
New Richmond Municipal

Weather History for KRNH - May, 2013

Change the Weather History Date:

Thursday, May 9, 2013

  Actual Average (KSTP) Record (KSTP)
Temperature  
Mean Temperature 50 °F -  
Max Temperature 59 °F 65 °F 89 °F (2004)
Min Temperature 41 °F 44 °F 36 °F (1999)
Degree Days  
Heating Degree Days 15    
Moisture  
Dew Point 44 °F    
Average Humidity 84    
Maximum Humidity 100    
Minimum Humidity 65    
Precipitation  
Precipitation 0.11 in - - ()
Sea Level Pressure  
Sea Level Pressure 30.04 in    
Wind  
Wind Speed 12 mph (NNE)    
Max Wind Speed 21 mph    
Max Gust Speed 26 mph    
Visibility 10 miles    
Events Rain    
Averages and records for this station are not official NWS values.
T = Trace of Precipitation, MM = Missing Value Source: NWS Daily Summary

Daily Weather History Graph

Daily Weather History Graph

Search for Another Location

Airport or City:

Trip Planner

Search our weather history database for the weather conditions in past years. The results will help you decide how hot, cold, wet, or windy it might be!

Date:

Astronomy

May. 09, 2013 Rise Set
Actual Time 5:47 AM CDT 8:26 PM CDT
Civil Twilight 5:14 AM CDT 9:00 PM CDT
Nautical Twilight 4:31 AM CDT 9:42 PM CDT
Astronomical Twilight 3:43 AM CDT 10:31 PM CDT
Moon 5:33 AM CDT (5/9) 8:21 PM CDT (5/9)
Length of Visible Light 15h 45m
Length of Day
14h 38m
Waning Crescent, 0% of the Moon is Illuminated
May 9
Waning Crescent
May 9
New
May 17
First Quarter
May 24
Full
May 31
Last Quarter

Hourly Weather History & Observations

Time (CDT) Temp. Windchill Dew Point Humidity Pressure Visibility Wind Dir Wind Speed Gust Speed Precip Events Conditions
12:15 AM 59.0 °F - 53.6 °F 82% 30.01 in 10.0 mi North 9.2 mph - N/A   Overcast
1:35 AM 57.2 °F - 51.8 °F 82% 29.99 in 10.0 mi North 5.8 mph - N/A   Mostly Cloudy
2:15 AM 57.2 °F - 51.8 °F 82% 29.99 in 10.0 mi NNE 5.8 mph - N/A   Overcast
2:55 AM 57.2 °F - 51.8 °F 82% 29.98 in 10.0 mi NNE 10.4 mph - N/A   Overcast
4:15 AM 55.4 °F - 50.0 °F 82% 29.97 in 10.0 mi NE 9.2 mph - N/A   Overcast
4:55 AM 55.4 °F - 50.0 °F 82% 29.97 in 10.0 mi NNE 9.2 mph - N/A   Mostly Cloudy
5:15 AM 55.4 °F - 50.0 °F 82% 29.97 in 10.0 mi NNE 9.2 mph - N/A   Scattered Clouds
5:35 AM 55.4 °F - 50.0 °F 82% 29.96 in 10.0 mi NNE 9.2 mph - N/A   Scattered Clouds
6:35 AM 55.4 °F - 50.0 °F 82% 29.97 in 10.0 mi NNE 9.2 mph - N/A   Overcast
8:35 AM 57.2 °F - 50.0 °F 77% 29.99 in 10.0 mi NNE 11.5 mph - N/A   Overcast
9:15 AM 57.2 °F - 48.2 °F 72% 29.99 in 10.0 mi NNE 10.4 mph - N/A   Overcast
9:55 AM 55.4 °F - 48.2 °F 77% 30.01 in 10.0 mi NE 9.2 mph - N/A   Light Drizzle
10:15 AM 55.4 °F - 48.2 °F 77% 30.01 in 10.0 mi NE 9.2 mph - N/A Rain Light Rain
10:35 AM 55.4 °F - 48.2 °F 77% 30.01 in 10.0 mi NE 9.2 mph - N/A Rain Light Rain
10:55 AM 55.4 °F - 48.2 °F 77% 30.01 in 10.0 mi NE 13.8 mph - N/A Rain Light Rain
11:15 AM 55.4 °F - 48.2 °F 77% 30.01 in 10.0 mi NE 16.1 mph - N/A Rain Light Rain
11:35 AM 55.4 °F - 50.0 °F 82% 30.02 in 10.0 mi NNE 13.8 mph 17.3 mph N/A Rain Light Rain
11:55 AM 53.6 °F - 50.0 °F 88% 30.02 in 10.0 mi NE 15.0 mph 20.7 mph N/A Rain Light Rain
12:15 PM 53.6 °F - 50.0 °F 88% 30.03 in 10.0 mi North 11.5 mph - 0.01 in Rain Light Rain
12:35 PM 51.8 °F - 50.0 °F 94% 30.03 in 10.0 mi North 13.8 mph - 0.02 in Rain Light Rain
12:55 PM 50.0 °F - 48.2 °F 94% 30.03 in 10.0 mi North 15.0 mph - 0.02 in Rain Light Rain
1:15 PM 50.0 °F - 48.2 °F 94% 30.04 in 10.0 mi North 15.0 mph - N/A Rain Light Rain
1:35 PM 46.4 °F 39.8 °F 46.4 °F 100% 30.04 in 10.0 mi North 16.1 mph 23.0 mph 0.01 in Rain Light Rain
1:55 PM 46.4 °F 39.2 °F 46.4 °F 100% 30.04 in 10.0 mi NNE 18.4 mph 23.0 mph 0.03 in Rain Light Rain
2:35 PM 44.6 °F 37.4 °F 44.6 °F 100% 30.04 in 10.0 mi North 16.1 mph 21.9 mph 0.02 in Rain Light Rain
3:15 PM 44.6 °F 38.1 °F 44.6 °F 100% 30.04 in 10.0 mi North 13.8 mph - 0.01 in Rain Light Rain
3:35 PM 44.6 °F 37.8 °F 44.6 °F 100% 30.04 in 10.0 mi North 15.0 mph - 0.02 in Rain Light Rain
3:55 PM 44.6 °F 36.4 °F 44.6 °F 100% 30.04 in 10.0 mi NNE 20.7 mph - 0.02 in   Drizzle
4:15 PM 44.6 °F 36.9 °F 44.6 °F 100% 30.04 in 10.0 mi NNE 18.4 mph - 0.01 in Rain Light Rain
4:35 PM 44.6 °F 36.9 °F 44.6 °F 100% 30.04 in 10.0 mi NNE 18.4 mph - 0.01 in Rain Light Rain
4:55 PM 44.6 °F 37.8 °F 42.8 °F 93% 30.04 in 10.0 mi NNE 15.0 mph 23.0 mph 0.01 in Rain Light Rain
5:15 PM 42.8 °F 34.3 °F 42.8 °F 100% 30.05 in 10.0 mi NNE 19.6 mph - 0.01 in   Light Drizzle
5:35 PM 42.8 °F 34.8 °F 41.0 °F 93% 30.06 in 10.0 mi NNE 17.3 mph 26.5 mph 0.01 in Rain Light Rain
5:55 PM 42.8 °F 34.8 °F 41.0 °F 93% 30.06 in 10.0 mi NNE 17.3 mph - 0.01 in   Overcast
6:15 PM 42.8 °F 34.8 °F 41.0 °F 93% 30.06 in 10.0 mi NNE 17.3 mph 24.2 mph N/A   Light Drizzle
6:35 PM 42.8 °F 34.5 °F 41.0 °F 93% 30.06 in 10.0 mi NNE 18.4 mph 23.0 mph N/A   Overcast
6:55 PM 42.8 °F 35.8 °F 41.0 °F 93% 30.07 in 10.0 mi NNE 13.8 mph 24.2 mph N/A   Overcast
7:15 PM 42.8 °F 34.8 °F 39.2 °F 87% 30.07 in 10.0 mi NNE 17.3 mph 26.5 mph N/A   Overcast
7:35 PM 42.8 °F 35.4 °F 37.4 °F 81% 30.07 in 10.0 mi NNE 15.0 mph 21.9 mph N/A   Overcast
7:55 PM 42.8 °F 35.4 °F 35.6 °F 76% 30.07 in 10.0 mi NE 15.0 mph 23.0 mph N/A   Overcast
8:15 PM 42.8 °F 35.1 °F 33.8 °F 70% 30.08 in 10.0 mi NE 16.1 mph 25.3 mph N/A   Overcast
8:35 PM 42.8 °F 34.8 °F 32.0 °F 66% 30.09 in 10.0 mi NE 17.3 mph 21.9 mph N/A   Overcast
8:55 PM 42.8 °F 35.8 °F 32.0 °F 66% 30.09 in 10.0 mi NE 13.8 mph 18.4 mph N/A   Overcast
9:15 PM 42.8 °F 35.4 °F 32.0 °F 66% 30.09 in 10.0 mi NNE 15.0 mph 18.4 mph N/A   Overcast
9:35 PM 42.8 °F 36.6 °F 32.0 °F 66% 30.10 in 10.0 mi NNE 11.5 mph 17.3 mph N/A   Overcast
9:55 PM 41.0 °F 34.3 °F 32.0 °F 70% 30.10 in 10.0 mi NNE 11.5 mph 17.3 mph N/A   Mostly Cloudy
10:15 PM 41.0 °F 34.3 °F 32.0 °F 70% 30.10 in 10.0 mi NNE 11.5 mph - N/A   Mostly Cloudy
10:55 PM 41.0 °F 34.3 °F 30.2 °F 65% 30.10 in 10.0 mi NE 11.5 mph 20.7 mph N/A   Overcast
11:35 PM 41.0 °F 34.3 °F 30.2 °F 65% 30.10 in 10.0 mi NE 11.5 mph - N/A   Overcast